Weather History for Mountain Home, ID

Change the Weather History Date:

Wednesday, November 21, 2012

  Actual Average Record
Temperature  
Mean Temperature 44 °F 36 °F  
Max Temperature 59 °F 45 °F 67 °F (1966)
Min Temperature 29 °F 26 °F 2 °F (1929)
Degree Days  
Heating Degree Days 21 29  
Month to date heating degree days 434 509  
Cooling Degree Days 0 0  
Month to date cooling degree days 0 0  
Moisture  
Dew Point 35 °F    
Average Humidity 65    
Maximum Humidity 92    
Minimum Humidity 40    
Precipitation  
Precipitation 0.02 in 0.05 in 0.64 in (1910)
Month to date precipitation 0.13 0.85  
Sea Level Pressure  
Sea Level Pressure 29.98 in    
Wind  
Wind Speed 15 mph (NNW)    
Max Wind Speed 28 mph    
Max Gust Speed 34 mph    
Visibility 10 miles    
Events Rain    
T = Trace of Precipitation, MM = Missing Value Source: NWS Daily Summary

Daily Weather History Graph

Daily Weather History Graph

Search for Another Location

Airport:

Trip Planner

Search our weather history database for the weather conditions in past years. The results will help you decide how hot, cold, wet, or windy it might be!

Date:

Astronomy

Nov. 21, 2012 Rise Set
Actual Time 7:44 AM MST 5:14 PM MST
Civil Twilight 7:13 AM MST 5:45 PM MST
Nautical Twilight 6:38 AM MST 6:20 PM MST
Astronomical Twilight 6:04 AM MST 6:54 PM MST
Moon 1:41 PM MST 12:58 AM MST
Length of Visible Light 10h 32m
Length of Day
9h 30m
Waxing Gibbous, 62% of the Moon is Illuminated
Nov 21
Waxing Gibbous
Nov 28
Full
Dec 6
Last Quarter
Dec 13
New
Dec 19
First Quarter

Hourly Weather History & Observations

Time (MST) Temp. Windchill Dew Point Humidity Pressure Visibility Wind Dir Wind Speed Gust Speed Precip Events Conditions
12:58 AM 51.6 °F - 40.5 °F 66% 29.83 in 10.0 mi East 19.6 mph - N/A   Overcast
1:58 AM 51.6 °F - 39.7 °F 64% 29.81 in 10.0 mi East 17.3 mph - N/A   Overcast
2:58 AM 50.2 °F - 39.7 °F 67% 29.80 in 10.0 mi East 13.8 mph - N/A   Partly Cloudy
3:58 AM 46.6 °F - 40.1 °F 78% 29.80 in 10.0 mi East 11.5 mph - N/A   Clear
4:58 AM 46.0 °F 40.6 °F 40.6 °F 81% 29.81 in 10.0 mi East 11.5 mph - N/A   Partly Cloudy
5:58 AM 50.9 °F - 37.2 °F 59% 29.82 in 10.0 mi East 4.6 mph - N/A   Mostly Cloudy
6:23 AM 50.0 °F - 37.4 °F 62% 29.84 in 10.0 mi SSE 4.6 mph - N/A   Overcast
6:28 AM 50.0 °F - 39.2 °F 66% 29.83 in 10.0 mi SSE 3.5 mph - N/A Rain Light Rain
6:58 AM 45.9 °F 43.6 °F 43.7 °F 92% 29.84 in 10.0 mi East 4.6 mph - 0.00 in   Partly Cloudy
7:58 AM 50.9 °F - 34.2 °F 53% 29.84 in 10.0 mi SSE 10.4 mph 23.0 mph N/A   Mostly Cloudy
8:58 AM 56.1 °F - 33.1 °F 42% 29.85 in 10.0 mi South 9.2 mph - N/A   Overcast
9:58 AM 57.6 °F - 33.1 °F 40% 29.86 in 10.0 mi SSW 8.1 mph - N/A   Mostly Cloudy
10:55 AM 51.8 °F - 41.0 °F 67% 29.92 in 10.0 mi NNW 19.6 mph 29.9 mph N/A   Mostly Cloudy
11:05 AM - - - N/A% 29.93 in 7.0 mi NNW 17.3 mph 28.8 mph N/A Rain Light Rain Showers
11:55 AM 50.0 °F - 46.4 °F 87% 29.93 in 8.0 mi North 5.8 mph - N/A   Mostly Cloudy
12:55 PM 48.2 °F - 44.6 °F 87% 29.96 in 9.0 mi NW 23.0 mph 34.5 mph N/A   Mostly Cloudy
1:53 PM 48.2 °F - 35.6 °F 62% 29.98 in 10.0 mi NW 24.2 mph - N/A   Overcast
1:58 PM 47.3 °F - 35.6 °F 64% 29.99 in 10.0 mi NNW 20.7 mph - 0.00 in   Overcast
2:03 PM 48.2 °F - 33.8 °F 58% 29.99 in 10.0 mi NNW 23.0 mph - N/A   Overcast
2:13 PM 48.2 °F - 35.6 °F 62% 29.99 in 10.0 mi NNW 20.7 mph - N/A   Overcast
2:18 PM 48.2 °F - 37.4 °F 66% 30.00 in 10.0 mi NW 24.2 mph 27.6 mph N/A   Overcast
2:28 PM 48.2 °F - 37.4 °F 66% 30.00 in 10.0 mi NW 20.7 mph - N/A   Overcast
2:33 PM 48.2 °F - 37.4 °F 66% 30.00 in 10.0 mi NW 18.4 mph - N/A   Overcast
2:38 PM 46.4 °F 39.5 °F 37.4 °F 71% 30.01 in 10.0 mi NW 17.3 mph - N/A Rain Light Rain
2:58 PM 47.1 °F - 34.3 °F 61% 30.03 in 10.0 mi NW 27.6 mph 33.4 mph 0.00 in   Light Drizzle
3:28 PM 46.4 °F 38.7 °F 32.0 °F 57% 30.03 in 10.0 mi WNW 20.7 mph 27.6 mph N/A   Overcast
3:58 PM 45.5 °F 38.1 °F 31.5 °F 58% 30.05 in 10.0 mi WNW 18.4 mph 27.6 mph 0.00 in   Overcast
4:38 PM 44.6 °F 36.9 °F 30.2 °F 57% 30.06 in 10.0 mi WNW 18.4 mph 32.2 mph N/A   Mostly Cloudy
4:58 PM 45.0 °F 37.4 °F 29.5 °F 55% 30.09 in 10.0 mi WNW 18.4 mph 26.5 mph 0.00 in   Mostly Cloudy
5:58 PM 42.1 °F 36.1 °F 30.2 °F 63% 30.11 in 10.0 mi West 10.4 mph - N/A   Mostly Cloudy
6:58 PM 38.7 °F 32.4 °F 28.2 °F 66% 30.16 in 10.0 mi West 9.2 mph - N/A   Clear
7:58 PM 38.3 °F 30.1 °F 24.8 °F 58% 30.18 in 10.0 mi West 13.8 mph - N/A   Clear
8:58 PM 36.0 °F 28.5 °F 25.2 °F 65% 30.21 in 10.0 mi West 10.4 mph - N/A   Clear
9:58 PM 34.7 °F 28.8 °F 25.2 °F 68% 30.23 in 10.0 mi North 6.9 mph - N/A   Clear
10:58 PM 32.4 °F 26.0 °F 24.4 °F 73% 30.23 in 10.0 mi East 6.9 mph - N/A   Clear
11:58 PM 29.1 °F - 24.8 °F 84% 30.24 in 10.0 mi North 1.2 mph - N/A   Clear